sat.trackr.live / text

‹ back to catalog

STARLINK-1608

NORAD 46146 · 2020-057AF

PAYLOAD ACTIVE UNKNOWN

§ Identity

Operator
Country
US
Launch date
2020-08-18
Launch site
AFETR
Launch vehicle
Mass (kg)
RCS (m²)

Purposes: comms

External: N2YO · Heavens-Above · Gunter

§ Orbital elements

Epoch: 2026-09-14T23:16:45.026976Z

Period
93.17 min
Inclination
53.1524°
Eccentricity
0.0000780
Mean motion
15.45593687 rev/d
Perigee alt
429.1 km
Apogee alt
430.2 km
Semi-major
6,807.8 km
B*
1.3357e-3
RAAN
141.3286°
Arg perigee
76.6183°
Mean anomaly
283.4911°
Rev number
33,528

§ Raw data

STARLINK-16081 46146U 20057AF  26257.96996559  .00065416  00000+0  13357-2 0  99972 46146  53.1524 141.3286 0000780  76.6183 283.4911 15.45593687335286

JSON: /api/v1/satellites/46146 · /tle

For live sub-satellite position, see the globe view (requires WebGL).

§ Visibility from observer

Set your observer location to see the next 7 days of passes ≥ 10°. The values pass through the URL so the page stays shareable.

No JS? Fill the form by hand. The geolocation button needs JavaScript.